GW4821 Weather Reports


Display with metric or nautical units.
time (UTC)temp
F
wind
direction
speed
MPH
gust
MPH
rain 1hr
in
rain 24hr
in
rain mn
in
humidity
%
barometer
mb
20260507111521 66 146 0.0 1.0 0.00 0.00 0.00 31 1013.5
20260507110023 66 146 0.0 0.0 0.00 0.00 0.00 34 1013.6
20260507104523 65 146 0.0 0.0 0.00 0.00 0.00 36 1013.7
20260507103029 65 146 0.0 1.0 0.00 0.00 0.00 35 1013.7
20260507101522 66 146 0.0 0.0 0.00 0.00 0.00 37 1013.7
20260507100011 66 146 0.0 0.0 0.00 0.00 0.00 28 1013.7
20260507094515 67 146 0.0 0.0 0.00 0.00 0.00 27 1013.8
20260507093020 68 146 0.0 0.0 0.00 0.00 0.00 27 1013.8
20260507091526 67 146 0.0 0.0 0.00 0.00 0.00 27 1013.9
20260507090008 68 146 0.0 0.0 0.00 0.00 0.00 26 1014.1
20260507084517 69 146 0.0 0.0 0.00 0.00 0.00 26 1014.0
20260507083016 70 146 0.0 1.0 0.00 0.00 0.00 26 1014.1
20260507081522 70 146 0.0 3.0 0.00 0.00 0.00 25 1014.1
20260507080022 70 145 0.0 3.0 0.00 0.00 0.00 25 1014.2
20260507074511 71 146 0.0 3.0 0.00 0.00 0.00 25 1014.2
20260507073014 71 143 1.0 3.0 0.00 0.00 0.00 25 1014.3
20260507071548 72 125 0.0 3.0 0.00 0.00 0.00 25 1014.3
20260507070025 72 124 0.0 3.0 0.00 0.00 0.00 24 1014.2
20260507064530 72 144 0.0 4.0 0.00 0.00 0.00 25 1014.4
20260507063012 72 138 1.0 4.0 0.00 0.00 0.00 25 1014.3
20260507061519 73 125 0.0 4.0 0.00 0.00 0.00 25 1014.2
20260507060022 74 144 1.0 5.0 0.00 0.00 0.00 25 1014.3
20260507054524 74 130 0.0 3.0 0.00 0.00 0.00 25 1014.3
20260507053039 75 143 1.0 4.0 0.00 0.00 0.00 24 1014.2
20260507051528 78 167 2.0 7.0 0.00 0.00 0.00 20 1014.2
20260507050022 78 200 1.0 5.0 0.00 0.00 0.00 21 1014.0
20260507044522 78 198 2.0 6.0 0.00 0.00 0.00 21 1014.0
20260507043027 79 221 1.0 8.0 0.00 0.00 0.00 20 1014.0
20260507041526 79 226 3.0 8.0 0.00 0.00 0.00 20 1013.8
20260507040016 79 175 1.0 6.0 0.00 0.00 0.00 20 1013.6
20260507034532 79 272 2.0 6.0 0.00 0.00 0.00 20 1013.5
20260507033038 80 192 2.0 6.0 0.00 0.00 0.00 20 1013.4
20260507031525 80 233 1.0 4.0 0.00 0.00 0.00 19 1013.1
20260507030013 80 242 0.0 2.0 0.00 0.00 0.00 19 1013.0
20260507024516 81 244 0.0 2.0 0.00 0.00 0.00 19 1012.8
20260507023027 82 245 0.0 2.0 0.00 0.00 0.00 19 1012.7
20260507021504 83 244 0.0 2.0 0.00 0.00 0.00 18 1012.4
20260507020010 84 246 0.0 3.0 0.00 0.00 0.00 18 1012.3
20260507014517 85 242 1.0 3.0 0.00 0.00 0.00 17 1012.3
20260507013021 86 241 0.0 4.0 0.00 0.00 0.00 17 1012.3
20260507011534 86 222 0.0 5.0 0.00 0.00 0.00 17 1012.3
20260507010007 87 250 0.0 5.0 0.00 0.00 0.00 17 1012.4
20260507004509 86 352 0.0 2.0 0.00 0.00 0.00 18 1012.3
20260507003016 87 265 0.0 3.0 0.00 0.00 0.00 18 1012.3
20260507001522 87 257 0.0 4.0 0.00 0.00 0.00 18 1012.4
20260507000024 86 257 1.0 7.0 0.00 0.00 0.00 18 1012.5
20260506234509 87 344 0.0 3.0 0.00 0.00 0.00 18 1012.5
20260506233028 86 248 2.0 10.0 0.00 0.00 0.00 18 1012.6
20260506231519 85 17 2.0 6.0 0.00 0.00 0.00 19 1012.9
20260506230021 87 235 1.0 7.0 0.00 0.00 0.00 17 1013.1
20260506224527 86 284 1.0 8.0 0.00 0.00 0.00 18 1013.1
20260506223028 86 352 1.0 6.0 0.00 0.00 0.00 18 1013.3
20260506221516 85 288 0.0 4.0 0.00 0.00 0.00 18 1013.5
20260506220031 84 13 1.0 6.0 0.00 0.00 0.00 19 1013.7
20260506214527 84 330 1.0 9.0 0.00 0.00 0.00 18 1013.9
20260506213030 85 277 0.0 9.0 0.00 0.00 0.00 18 1014.3
20260506211513 85 252 0.0 8.0 0.00 0.00 0.00 18 1014.4
20260506210019 84 299 0.0 6.0 0.00 0.00 0.00 19 1014.6
20260506204522 85 341 0.0 7.0 0.00 0.00 0.00 19 1014.9
20260506203029 85 136 1.0 9.0 0.00 0.00 0.00 19 1015.0
20260506201525 84 219 0.0 4.0 0.00 0.00 0.00 19 1015.1
20260506200020 84 200 3.0 8.0 0.00 0.00 0.00 18 1015.3
20260506194528 84 281 0.0 5.0 0.00 0.00 0.00 18 1015.3
20260506193026 84 141 1.0 8.0 0.00 0.00 0.00 19 1015.5
20260506191527 82 110 2.0 9.0 0.00 0.00 0.00 21 1015.6
20260506190030 82 267 0.0 5.0 0.00 0.00 0.00 21 1015.8
20260506184519 82 257 1.0 7.0 0.00 0.00 0.00 21 1016.0
20260506183024 80 18 0.0 6.0 0.00 0.00 0.00 23 1016.2
20260506181524 80 292 1.0 5.0 0.00 0.00 0.00 23 1016.4
20260506180012 80 228 0.0 4.0 0.00 0.00 0.00 24 1016.4
20260506174517 78 243 2.0 5.0 0.00 0.00 0.00 25 1016.5
20260506173020 78 238 1.0 6.0 0.00 0.00 0.00 24 1016.4
20260506171504 78 314 1.0 4.0 0.00 0.00 0.00 26 1016.4
20260506170007 77 234 2.0 6.0 0.00 0.00 0.00 28 1016.4
20260506164514 75 275 1.0 6.0 0.00 0.00 0.00 29 1016.3
20260506163018 75 279 0.0 6.0 0.00 0.00 0.00 29 1016.3
20260506161524 74 168 1.0 5.0 0.00 0.00 0.00 30 1016.3
20260506160007 74 223 0.0 3.0 0.00 0.00 0.00 31 1016.3
20260506154508 71 238 1.0 4.0 0.00 0.00 0.00 32 1016.2
20260506153014 71 245 1.0 4.0 0.00 0.00 0.00 33 1016.3
20260506151520 71 237 0.0 3.0 0.00 0.00 0.00 34 1016.3
20260506150024 70 139 0.0 4.0 0.00 0.00 0.00 35 1016.4
20260506144512 67 144 1.0 3.0 0.00 0.00 0.00 37 1016.3
20260506143012 66 134 1.0 4.0 0.00 0.00 0.00 38 1016.3
20260506141518 65 107 0.0 2.0 0.00 0.00 0.00 39 1016.1
20260506140022 63 105 0.0 2.0 0.00 0.00 0.00 41 1015.9
20260506134525 61 115 1.0 4.0 0.00 0.00 0.00 43 1015.7
20260506133011 60 132 0.0 2.0 0.00 0.00 0.00 44 1015.5
20260506131514 59 145 0.0 5.0 0.00 0.00 0.00 45 1015.4
20260506130020 58 138 0.0 4.0 0.00 0.00 0.00 45 1015.1
20260506124522 58 142 1.0 5.0 0.00 0.00 0.00 45 1015.0
20260506123026 59 136 1.0 5.0 0.00 0.00 0.00 44 1014.8
20260506121528 60 141 1.0 4.0 0.00 0.00 0.00 43 1014.6
20260506120027 61 138 0.0 3.0 0.00 0.00 0.00 43 1014.4
20260506114505 61 144 0.0 3.0 0.00 0.00 0.00 43 1014.4
20260506113008 61 185 0.0 3.0 0.00 0.00 0.00 43 1014.4